Helicity
52 100 91 19 29 116 204 194 74 25 80 22 30 45 87 93 98 117 136 145 126 111 98 88 84 75 72 68 64 81 95 95 79 78 86 98 105 116 128 135 140 143 143 150
64 34 39 36 17 43 60 59 144 65 56 33 59 68 75 69 79 101 100 97 86 80 77 71 65 72 72 67 66 80 96 105 116 120 118 113 122 125 135 149 152 154 163 157
36 20 18 45 30 47 35 66 39 7 31 7 45 33 34 32 43 52 56 55 54 50 43 50 65 68 73 73 72 88 109 129 147 147 142 130 130 154 161 157 156 159 149 138
51 38 72 34 18 12 23 11 2 36 36 28 31 35 21 21 27 31 32 34 32 36 47 66 56 59 53 66 85 109 135 150 157 158 146 146 163 156 145 145 142 137 130 124
49 53 35 16 23 9 1 15 2 7 33 39 42 58 33 6 34 43 47 37 29 41 49 52 69 68 85 119 126 138 142 146 141 139 156 151 153 141 129 130 132 135 129 120
29 38 33 31 29 19 28 28 23 3 17 38 35 14 4 52 75 80 60 45 50 51 53 82 92 84 114 114 122 137 128 131 135 140 145 135 126 130 126 129 123 122 126 129
17 28 30 23 8 17 7 14 3 2 7 54 45 2 38 122 106 83 60 69 73 81 101 100 86 92 130 123 133 97 108 129 138 130 129 129 126 126 121 125 131 137 139 134
-1 -0 4 5 3 -1 16 20 -4 15 47 77 69 89 98 109 103 89 94 95 83 103 114 110 103 108 108 132 87 98 106 120 129 128 124 124 130 127 128 138 143 137 130 124
22 22 23 -3 16 18 35 45 37 50 59 104 124 96 100 106 106 90 78 97 104 124 123 114 108 100 121 72 79 104 124 130 123 116 118 120 129 132 134 147 153 144 138 132
41 35 38 48 42 39 51 58 54 51 72 110 116 111 115 120 110 96 88 99 105 126 141 140 112 105 97 92 102 120 131 122 116 125 131 133 129 133 139 142 142 135 134 128
40 36 51 81 60 40 38 36 56 76 76 74 106 104 114 108 103 100 124 135 130 139 132 123 107 111 103 101 103 122 122 119 120 117 122 117 123 124 128 118 127 126 127 120
68 69 68 48 45 31 50 76 74 92 111 109 112 126 136 130 117 130 140 146 155 147 144 117 112 113 100 102 106 120 126 113 112 115 112 112 120 123 110 97 97 86 92 107
78 52 41 39 53 57 66 86 84 82 92 110 127 137 145 137 127 138 150 144 142 130 124 123 110 107 101 105 115 123 120 112 107 108 108 116 115 112 109 101 78 73 56 49
101 53 76 84 75 85 81 85 83 93 107 121 144 163 160 153 156 148 131 130 151 149 131 112 114 121 116 111 119 122 111 99 107 105 112 111 109 112 117 103 97 89 63 46
124 71 44 36 46 51 66 72 94 117 140 167 155 143 141 143 138 130 159 162 157 143 126 125 135 124 109 110 120 121 114 111 111 109 104 99 112 111 112 106 101 100 90 65
91 81 64 65 70 64 66 77 91 104 121 130 128 117 112 129 162 175 166 155 155 118 123 137 125 113 118 123 126 118 112 98 96 103 101 106 105 102 105 94 102 99 80 74
87 94 97 99 100 93 88 93 94 98 103 97 88 111 139 168 184 172 154 137 146 143 129 119 121 135 132 129 130 119 108 101 83 101 96 97 100 94 96 100 97 84 71 73
62 70 64 55 58 70 82 91 105 100 90 79 105 120 134 131 130 134 142 154 163 153 125 113 133 136 133 129 110 97 98 97 95 93 95 101 96 105 105 97 90 80 80 89
105 108 85 73 66 73 81 85 86 89 92 102 122 116 121 135 138 141 157 154 140 135 118 131 128 139 123 103 96 103 102 99 94 98 98 88 104 102 102 90 84 72 91 86
89 68 69 79 86 79 81 83 88 105 102 115 139 152 154 137 134 136 132 120 111 116 133 127 124 117 106 99 94 100 96 90 87 93 107 95 102 88 103 77 68 89 86 81
94 97 94 91 82 80 75 65 74 86 96 124 147 148 142 129 119 124 125 112 102 102 114 102 109 107 106 100 91 100 96 95 96 97 92 96 98 95 95 77 82 89 81 75
89 84 74 67 69 76 81 79 94 113 132 139 140 131 127 115 109 99 88 94 117 116 129 119 107 89 98 78 107 95 88 87 92 95 93 98 98 97 82 79 83 80 70 73
84 81 80 74 76 85 104 113 112 112 120 126 131 131 129 119 107 126 113 106 118 104 122 111 86 74 71 102 104 100 89 85 91 89 97 100 94 81 84 80 77 64 65 56
105 96 96 91 98 116 127 112 133 160 179 194 177 159 164 155 118 81 99 103 99 103 107 91 82 63 61 105 112 107 101 89 96 95 96 72 85 86 84 73 57 50 59 45
75 82 93 93 101 93 102 130 176 201 190 165 138 121 100 91 98 112 122 113 100 97 95 83 72 66 100 109 111 115 101 91 94 97 98 96 84 81 80 62 45 44 55 58
39 53 63 73 109 137 163 193 204 179 154 133 114 105 95 102 98 100 112 95 98 89 98 101 102 97 102 112 113 111 91 87 90 88 85 87 84 84 70 52 42 37 42 61
59 74 116 149 164 165 155 137 130 115 106 98 78 90 89 93 95 95 95 105 96 97 100 95 91 87 103 107 111 103 90 90 79 80 81 84 85 81 62 50 42 39 45 53
Wind_Speed
22 26 31 33 36 39 42 45 37 28 50 59 55 47 40 32 29 21 16 13 13 18 25 31 36 39 40 41 40 35 32 32 33 35 37 39 40 41 41 42 44 45 46 47
23 30 30 30 32 35 38 37 43 48 56 54 50 45 44 39 32 19 13 14 20 26 33 38 42 44 46 45 42 34 31 32 33 35 38 40 42 42 44 46 47 47 49 52
24 28 26 26 33 37 34 30 48 62 52 55 52 52 48 39 27 16 17 22 28 34 38 40 43 44 45 45 40 34 31 31 33 36 39 42 43 45 48 48 48 51 54 57
23 26 27 24 31 33 31 37 40 33 49 51 45 38 36 33 24 22 25 29 33 36 38 41 41 41 40 40 38 35 34 34 36 38 41 44 47 47 48 49 52 56 60 64
25 24 22 25 33 35 32 34 39 31 38 35 25 25 32 29 24 23 27 30 34 37 37 37 38 38 38 40 39 38 38 38 39 41 44 45 47 50 51 55 59 62 66 70
24 26 29 26 34 39 36 26 41 45 28 8 11 38 39 8 14 22 30 33 34 34 34 35 37 36 38 39 40 41 41 41 42 43 44 47 51 54 56 59 64 67 70 71
24 26 27 30 34 34 31 34 43 44 42 34 20 33 27 10 18 25 29 31 32 31 32 34 35 36 39 39 41 40 40 41 44 46 48 51 55 57 62 67 71 76 78 78
26 26 29 34 33 29 32 24 31 27 24 20 19 22 15 14 20 25 28 30 29 29 32 35 36 35 36 38 39 40 41 44 48 51 53 56 60 63 68 74 79 82 83 82
24 27 28 22 26 28 29 31 29 21 16 9 14 16 14 19 24 27 27 28 28 28 30 33 34 33 35 37 39 42 45 49 52 54 57 60 66 72 75 77 80 81 81 83
39 33 28 25 28 29 32 36 35 31 24 14 16 19 21 24 26 27 26 26 25 26 30 33 33 34 36 39 42 45 49 53 56 61 64 66 68 71 74 77 78 78 80 80
33 36 39 38 34 37 34 31 32 29 24 18 19 18 20 23 26 28 27 27 25 27 30 30 32 35 38 40 43 49 53 58 62 64 68 70 69 70 72 71 71 76 75 75
38 34 38 38 41 41 39 35 32 30 29 27 25 24 27 30 31 29 28 26 27 27 27 29 32 36 39 43 47 53 60 62 65 67 68 69 71 73 70 70 72 69 68 68
38 43 44 46 49 46 44 42 39 34 30 28 28 28 29 32 31 27 26 25 25 25 26 29 32 37 41 45 50 54 60 62 64 66 68 72 73 77 82 75 69 66 65 69
41 49 44 41 44 48 46 42 37 34 30 27 26 27 30 31 28 26 24 23 22 24 27 30 35 41 44 47 50 54 58 61 63 66 69 70 72 75 74 77 77 73 68 71
43 48 47 50 52 48 42 38 36 32 29 28 29 29 29 28 26 24 21 20 22 26 30 35 40 45 44 47 51 56 59 62 65 67 67 68 71 73 72 71 70 72 72 67
56 56 52 47 47 45 41 38 35 31 29 29 29 29 28 26 23 21 21 20 25 29 34 39 43 44 44 47 53 56 59 62 65 65 67 69 71 73 71 68 71 71 68 67
51 50 49 47 49 48 43 39 35 31 29 29 30 28 26 24 22 21 23 25 30 33 36 41 46 44 45 47 52 56 59 62 63 65 67 68 70 69 66 70 70 66 63 63
41 42 43 45 47 46 43 36 33 32 32 30 27 26 24 21 22 23 26 29 34 39 43 44 43 44 45 48 52 55 57 61 63 66 67 67 67 64 67 66 64 62 61 65
38 38 40 42 43 41 38 34 33 33 32 27 26 26 26 27 28 29 31 36 42 46 47 42 43 45 47 48 51 53 58 62 66 66 64 65 63 62 61 62 60 57 62 65
38 39 40 40 39 38 36 35 33 33 31 29 28 29 30 30 31 33 36 42 43 44 44 43 44 45 47 49 52 54 59 63 67 66 62 61 62 59 59 60 56 57 62 59
39 40 39 39 40 39 37 35 33 33 32 30 31 31 32 33 34 36 42 47 47 44 44 44 45 48 48 51 54 57 61 67 65 63 61 59 58 57 57 56 54 55 57 53
42 43 42 41 40 41 40 37 36 34 33 33 34 34 36 38 39 42 43 48 48 45 45 46 48 48 48 52 52 57 63 65 60 59 58 59 55 53 53 55 54 56 51 50
45 46 46 45 44 42 40 39 37 37 37 38 39 40 41 44 45 51 58 52 49 48 47 47 48 47 47 51 53 56 61 60 58 56 56 54 51 50 52 53 53 49 49 48
53 53 51 47 45 44 44 43 42 42 42 43 42 42 45 50 53 52 53 53 50 49 49 48 48 47 47 50 51 55 57 58 55 53 51 49 46 50 50 52 48 47 47 42
56 55 53 51 49 48 46 45 45 45 46 47 47 48 49 51 56 56 54 52 48 48 47 46 47 46 48 49 54 53 55 54 51 48 47 45 45 50 46 44 43 46 44 35
56 55 53 50 50 50 49 47 49 49 50 52 52 54 55 53 51 51 50 48 47 46 46 47 48 48 49 53 51 48 51 50 48 47 46 42 44 43 40 36 41 48 49 35
56 53 53 52 50 48 48 48 51 53 51 53 56 55 52 51 51 49 47 46 46 46 48 49 50 51 52 53 49 48 49 47 46 44 41 38 38 37 29 28 39 46 48 45
Wind_Direction
145 136 157 170 172 180 186 194 211 227 196 192 194 196 199 204 206 210 223 250 288 309 308 312 315 320 326 326 325 328 332 335 339 341 343 344 343 343 344 343 341 341 340 339
152 149 148 177 191 187 190 204 210 201 184 192 194 197 197 201 208 222 253 291 306 308 312 316 322 324 325 327 330 336 335 336 340 344 346 347 347 346 345 344 344 343 341 338
147 132 168 182 187 179 185 188 170 164 183 187 190 193 198 208 225 252 278 295 305 314 324 329 330 331 332 336 341 345 346 346 347 348 349 349 348 347 346 346 345 342 340 338
157 156 156 192 157 184 192 184 184 195 188 190 197 212 222 232 249 270 290 306 318 333 335 333 336 342 347 352 357 358 358 356 354 352 350 349 349 349 349 347 344 341 338 336
142 163 184 184 158 179 196 198 211 221 209 215 234 244 244 258 278 301 320 338 334 334 339 344 347 353 358 359 2 2 360 357 354 353 351 352 351 349 347 344 342 340 338 336
152 145 145 188 158 150 158 203 160 159 102 261 281 237 253 56 352 333 329 335 340 345 350 353 354 359 1 1 0 358 357 356 356 357 356 352 349 347 346 343 340 339 337 337
160 158 161 179 179 174 190 187 154 132 126 115 99 281 305 46 341 338 341 346 350 353 354 355 356 358 357 357 356 358 1 2 359 356 353 351 347 346 343 341 339 337 337 337
143 160 156 157 162 178 182 242 97 92 105 103 347 345 19 5 347 345 346 347 352 355 355 354 355 358 359 360 1 2 1 358 355 352 350 348 346 344 342 340 338 337 337 338
92 81 14 35 352 350 343 338 346 15 10 37 1 354 359 346 341 341 346 347 350 354 355 355 358 1 360 359 359 357 355 353 351 349 348 347 344 341 341 340 340 339 339 339
331 349 355 352 342 340 336 334 335 335 343 353 340 335 333 334 337 340 345 348 352 354 352 353 356 358 358 356 355 354 351 349 348 346 345 346 345 343 342 342 341 341 340 340
336 333 332 333 336 333 336 338 339 340 343 345 340 336 335 336 336 337 339 343 347 347 346 349 354 354 353 354 353 350 349 347 345 345 344 343 344 344 344 344 343 341 341 341
325 336 334 333 332 335 334 335 335 335 333 331 329 328 328 328 330 332 333 340 340 344 347 349 350 350 351 351 350 347 344 344 344 343 343 344 343 343 346 344 344 344 344 344
323 324 324 321 321 327 327 327 329 330 329 327 328 328 328 328 330 335 335 337 338 341 347 349 348 349 349 349 348 346 343 343 343 343 343 342 342 342 341 344 347 348 348 346
322 321 322 328 327 326 330 333 336 336 334 331 330 333 331 331 334 333 334 339 346 349 348 348 346 344 347 347 347 346 344 344 344 343 342 342 343 343 343 343 344 346 347 346
317 317 318 318 319 324 331 335 335 336 337 336 334 331 332 332 332 335 343 348 350 346 344 343 342 341 346 346 345 343 343 343 343 343 343 344 344 344 344 345 345 345 346 349
308 312 317 320 321 326 331 334 334 335 337 335 334 333 334 336 339 343 345 350 343 339 340 340 339 342 344 345 343 343 343 342 343 344 344 344 345 345 345 347 347 346 349 351
308 312 316 318 321 324 328 331 333 333 334 333 332 336 339 342 345 345 344 342 341 340 338 337 337 342 343 344 343 342 342 343 344 344 343 344 345 346 348 347 347 349 352 353
317 316 318 319 321 324 328 332 335 335 333 335 338 340 342 342 339 339 338 338 337 335 335 336 340 341 342 342 342 342 342 343 343 342 343 344 346 348 347 349 350 351 353 352
325 326 328 328 329 332 334 336 336 337 337 340 341 339 340 339 338 337 337 334 331 331 334 337 339 339 340 341 341 342 342 341 341 342 344 345 346 348 350 351 352 353 353 353
328 329 331 333 336 337 339 339 340 340 341 342 341 339 337 337 337 336 334 331 333 334 338 337 337 337 338 340 341 341 341 341 341 342 344 346 347 349 351 352 354 354 353 356
331 333 335 336 336 338 339 339 340 339 339 340 338 337 336 336 335 335 332 330 334 334 334 334 335 335 337 338 340 340 341 340 341 344 345 346 347 349 352 354 355 355 356 0
329 330 331 332 333 334 335 336 336 336 337 336 336 335 334 332 331 330 330 329 333 333 332 331 332 334 335 337 339 339 340 341 343 345 346 347 349 351 353 354 355 355 1 2
327 328 329 328 328 330 333 334 334 333 332 331 330 329 328 329 329 327 326 330 329 328 328 329 330 332 333 336 337 338 340 342 343 344 346 349 351 353 353 353 356 0 3 6
321 323 324 326 326 326 324 326 327 327 327 327 326 327 327 326 326 325 325 326 327 327 327 329 330 330 332 334 336 338 340 341 342 345 347 349 352 353 353 352 358 2 5 13
320 321 322 322 320 320 322 323 323 323 323 323 324 324 324 323 322 325 326 327 328 328 328 330 331 331 332 334 335 337 339 341 343 346 348 350 351 349 351 358 2 3 9 25
320 320 321 321 320 319 320 321 320 321 321 321 322 323 324 325 325 326 327 328 329 330 331 331 331 331 332 333 335 337 339 341 344 345 346 350 349 348 356 6 3 356 1 26
318 320 321 321 322 322 321 321 320 321 323 323 322 325 327 329 329 330 331 331 332 332 332 331 331 331 333 334 336 337 339 341 343 344 347 349 348 351 8 14 358 352 358 8